EW4443 Weather Reports


Display with metric or nautical units.
time (UTC)temp
F
wind
direction
speed
MPH
gust
MPH
rain 1hr
in
rain 24hr
in
rain mn
in
humidity
%
barometer
mb
20260506032413 73 0 1.0 8.0 0.00 0.00 0.00 25 1010.0
20260506031914 73 293 0.0 3.0 0.00 0.00 0.00 25 1009.7
20260506031414 73 293 1.0 7.0 0.00 0.00 0.00 25 1009.7
20260506030913 73 248 1.0 7.0 0.00 0.00 0.00 25 1009.3
20260506030415 73 248 1.0 6.0 0.00 0.00 0.00 25 1009.7
20260506030145 74 293 1.0 4.0 0.00 0.00 0.00 25 1009.3
20260506025415 74 270 1.0 4.0 0.00 0.00 0.00 25 1009.3
20260506024915 74 270 1.0 6.0 0.00 0.00 0.00 25 1009.3
20260506024415 74 248 1.0 6.0 0.00 0.00 0.00 25 1009.0
20260506023913 74 293 1.0 7.0 0.00 0.00 0.00 25 1009.0
20260506023415 74 248 2.0 7.0 0.00 0.00 0.00 25 1009.0
20260506022913 74 225 2.0 8.0 0.00 0.00 0.00 24 1009.0
20260506022413 74 270 2.0 8.0 0.00 0.00 0.00 24 1009.0
20260506021914 75 225 2.0 8.0 0.00 0.00 0.00 24 1008.7
20260506021414 75 225 1.0 7.0 0.00 0.00 0.00 24 1008.7
20260506020914 75 203 2.0 8.0 0.00 0.00 0.00 24 1008.7
20260506020414 75 270 1.0 8.0 0.00 0.00 0.00 24 1008.3
20260506015914 76 0 1.0 9.0 0.00 0.00 0.00 22 1008.3
20260506015413 76 180 2.0 9.0 0.00 0.00 0.00 22 1008.3
20260506014913 76 270 2.0 8.0 0.00 0.00 0.00 22 1008.0
20260506014412 76 270 1.0 6.0 0.00 0.00 0.00 22 1008.3
20260506013912 76 248 1.0 8.0 0.00 0.00 0.00 22 1008.3
20260506013414 77 293 2.0 9.0 0.00 0.00 0.00 22 1008.3
20260506013144 77 270 2.0 9.0 0.00 0.00 0.00 22 1008.3
20260506012413 77 248 2.0 8.0 0.00 0.00 0.00 22 1008.0
20260506011913 78 248 2.0 8.0 0.00 0.00 0.00 24 1008.3
20260506011414 78 248 2.0 8.0 0.00 0.00 0.00 22 1008.0
20260506010912 78 180 2.0 8.0 0.00 0.00 0.00 24 1008.0
20260506010412 78 113 1.0 8.0 0.00 0.00 0.00 24 1008.0
20260506005912 78 203 1.0 7.0 0.00 0.00 0.00 24 1008.0
20260506005643 78 203 2.0 8.0 0.00 0.00 0.00 24 1008.0
20260506005628 78 270 2.0 9.0 0.00 0.00 0.00 24 1008.0
20260506004355 78 270 2.0 9.0 0.00 0.00 0.00 24 1008.0
20260506004125 78 270 2.0 8.0 0.00 0.00 0.00 24 1008.0
20260506003354 78 270 2.0 10.0 0.00 0.00 0.00 24 1008.0
20260506002854 78 270 2.0 10.0 0.00 0.00 0.00 24 1007.6
20260506002353 78 293 1.0 7.0 0.00 0.00 0.00 22 1007.6
20260506001852 79 225 2.0 7.0 0.00 0.00 0.00 24 1007.6
20260506001352 79 225 2.0 10.0 0.00 0.00 0.00 22 1007.6
20260506001125 79 248 2.0 10.0 0.00 0.00 0.00 22 1007.6
20260506000625 80 180 2.0 11.0 0.00 0.00 0.00 22 1007.6
20260505235854 80 203 2.0 11.0 0.00 0.00 0.00 22 1007.6
20260505235355 80 203 2.0 9.0 0.00 0.00 0.00 22 1007.6
20260505234853 80 293 2.0 9.0 0.00 0.00 0.00 22 1007.6
20260505234625 80 248 2.0 8.0 0.00 0.00 0.00 22 1007.3
20260505234124 80 180 2.0 10.0 0.00 0.00 0.00 22 1007.6
20260505233624 80 225 2.0 11.0 0.00 0.00 0.00 22 1007.6
20260505232853 80 270 2.0 11.0 0.00 0.00 0.00 22 1007.6
20260505232623 80 270 2.0 10.0 0.00 0.00 0.00 22 1007.6
20260505231854 80 270 2.0 10.0 0.00 0.00 0.00 22 1007.6
20260505231352 80 293 2.0 11.0 0.00 0.00 0.00 22 1007.6
20260505230853 80 225 2.0 11.0 0.00 0.00 0.00 22 1007.6
20260505230353 80 293 3.0 11.0 0.00 0.00 0.00 24 1007.6
20260505225854 80 0 2.0 11.0 0.00 0.00 0.00 22 1007.6
20260505225351 81 180 3.0 10.0 0.00 0.00 0.00 22 1007.6
20260505224852 80 248 2.0 10.0 0.00 0.00 0.00 24 1007.6
20260505224622 80 135 2.0 13.0 0.00 0.00 0.00 22 1007.6
20260505223852 81 248 2.0 14.0 0.00 0.00 0.00 22 1008.0
20260505223352 81 45 2.0 14.0 0.00 0.00 0.00 22 1008.0
20260505222859 81 45 2.0 12.0 0.00 0.00 0.00 24 1008.0
20260505222853 81 338 2.0 12.0 0.00 0.00 0.00 22 1008.0
20260505222353 81 270 2.0 12.0 0.00 0.00 0.00 22 1008.0
20260505221353 80 270 2.0 12.0 0.00 0.00 0.00 24 1008.0
20260505221122 80 338 2.0 11.0 0.00 0.00 0.00 22 1008.0
20260505221110 80 293 2.0 11.0 0.00 0.00 0.00 22 1008.0
20260505215852 80 203 2.0 9.0 0.00 0.00 0.00 24 1008.3
20260505215622 80 225 2.0 9.0 0.00 0.00 0.00 22 1008.3
20260505215122 80 203 2.0 10.0 0.00 0.00 0.00 24 1008.0
20260505214352 80 225 3.0 11.0 0.00 0.00 0.00 22 1008.3
20260505214122 80 180 2.0 12.0 0.00 0.00 0.00 25 1008.7
20260505213352 80 180 3.0 12.0 0.00 0.00 0.00 25 1008.7
20260505212852 80 180 2.0 10.0 0.00 0.00 0.00 25 1008.3
20260505212351 80 270 2.0 10.0 0.00 0.00 0.00 25 1008.7
20260505212122 79 203 2.0 10.0 0.00 0.00 0.00 25 1008.3
20260505211347 79 135 3.0 13.0 0.00 0.00 0.00 25 1008.7
20260505210833 79 248 3.0 13.0 0.00 0.00 0.00 25 1008.7
20260505210340 79 180 3.0 12.0 0.00 0.00 0.00 25 1008.7
20260505210336 79 203 3.0 13.0 0.00 0.00 0.00 25 1008.7
20260505205332 79 180 2.0 12.0 0.00 0.00 0.00 27 1009.0
20260505204832 79 180 2.0 10.0 0.00 0.00 0.00 27 1009.0
20260505204332 79 270 2.0 12.0 0.00 0.00 0.00 27 1008.7
20260505203831 78 180 2.0 12.0 0.00 0.00 0.00 29 1009.0
20260505203331 78 248 2.0 8.0 0.00 0.00 0.00 27 1008.7
20260505202831 78 270 1.0 10.0 0.00 0.00 0.00 30 1009.0
20260505202331 78 225 2.0 10.0 0.00 0.00 0.00 30 1009.0
20260505201832 78 270 2.0 9.0 0.00 0.00 0.00 31 1009.0
20260505201332 77 248 2.0 9.0 0.00 0.00 0.00 31 1009.0
20260505200832 77 270 2.0 9.0 0.00 0.00 0.00 30 1009.0
20260505200603 77 135 2.0 8.0 0.00 0.00 0.00 31 1009.3
20260505195832 77 270 2.0 8.0 0.00 0.00 0.00 32 1009.3
20260505195330 77 203 2.0 9.0 0.00 0.00 0.00 32 1009.3
20260505194830 78 225 2.0 12.0 0.00 0.00 0.00 32 1009.3
20260505194332 77 158 3.0 12.0 0.00 0.00 0.00 34 1009.3
20260505194101 77 180 2.0 11.0 0.00 0.00 0.00 35 1009.3
20260505193332 77 203 3.0 12.0 0.00 0.00 0.00 34 1009.7
20260505192830 77 248 2.0 12.0 0.00 0.00 0.00 34 1009.3
20260505192330 76 180 2.0 10.0 0.00 0.00 0.00 35 1009.3
20260505191830 76 225 3.0 10.0 0.00 0.00 0.00 35 1009.7
20260505191331 76 203 2.0 9.0 0.00 0.00 0.00 35 1009.7
20260505191101 76 270 2.0 10.0 0.00 0.00 0.00 37 1009.7
20260505190329 75 225 2.0 12.0 0.00 0.00 0.00 37 1009.7
20260505185829 75 225 3.0 12.0 0.00 0.00 0.00 37 1010.0
20260505185329 75 203 3.0 10.0 0.00 0.00 0.00 37 1009.7
20260505184830 75 180 2.0 9.0 0.00 0.00 0.00 37 1009.7
20260505184329 75 180 2.0 10.0 0.00 0.00 0.00 37 1010.0
20260505183830 74 180 3.0 10.0 0.00 0.00 0.00 37 1010.0
20260505183330 74 203 2.0 10.0 0.00 0.00 0.00 35 1010.0
20260505182829 75 158 2.0 8.0 0.00 0.00 0.00 37 1010.0
20260505182329 75 203 2.0 12.0 0.00 0.00 0.00 37 1010.0
20260505181828 75 203 2.0 12.0 0.00 0.00 0.00 37 1010.0
20260505181328 75 180 2.0 12.0 0.00 0.00 0.00 37 1010.0
20260505180828 74 225 2.0 10.0 0.00 0.00 0.00 37 1010.0
20260505180604 74 203 2.0 9.0 0.00 0.00 0.00 40 1010.0
20260505175829 74 225 1.0 8.0 0.00 0.00 0.00 40 1009.7
20260505175310 74 225 2.0 8.0 0.00 0.00 0.00 40 1010.0
20260505174810 74 135 2.0 8.0 0.00 0.00 0.00 43 1010.0
20260505174540 73 203 2.0 8.0 0.00 0.00 0.00 43 1010.5
20260505173809 73 203 2.0 9.0 0.00 0.00 0.00 44 1010.0
20260505173309 72 225 2.0 9.0 0.00 0.00 0.00 44 1010.0
20260505172809 72 203 1.0 8.0 0.00 0.00 0.00 45 1010.0
20260505172309 73 180 2.0 8.0 0.00 0.00 0.00 44 1010.0
20260505171809 73 180 2.0 8.0 0.00 0.00 0.00 45 1010.0
20260505171309 73 248 1.0 8.0 0.00 0.00 0.00 45 1010.0
20260505170810 73 180 2.0 8.0 0.00 0.00 0.00 45 1010.0
20260505170309 73 180 1.0 8.0 0.00 0.00 0.00 45 1010.0
20260505165808 73 315 1.0 8.0 0.00 0.00 0.00 45 1010.0
20260505165309 73 180 2.0 8.0 0.00 0.00 0.00 46 1010.0
20260505164809 72 225 2.0 8.0 0.00 0.00 0.00 48 1010.0
20260505164308 71 248 2.0 7.0 0.00 0.00 0.00 49 1009.7
20260505163810 71 225 1.0 6.0 0.00 0.00 0.00 49 1010.0
20260505163540 71 180 2.0 7.0 0.00 0.00 0.00 49 1010.0
20260505162809 71 180 1.0 7.0 0.00 0.00 0.00 49 1010.5
20260505162540 71 180 1.0 7.0 0.00 0.00 0.00 49 1010.0
20260505161809 71 203 2.0 8.0 0.00 0.00 0.00 50 1010.5
20260505161539 70 158 2.0 8.0 0.00 0.00 0.00 50 1010.5
20260505160808 70 180 2.0 7.0 0.00 0.00 0.00 50 1010.0
20260505160538 70 158 2.0 8.0 0.00 0.00 0.00 50 1010.5
20260505153309 70 203 1.0 5.0 0.00 0.00 0.00 51 1010.5
20260505152809 70 158 1.0 5.0 0.00 0.00 0.00 53 1010.0
20260505152307 69 180 1.0 6.0 0.00 0.00 0.00 53 1010.0
20260505151807 69 180 1.0 6.0 0.00 0.00 0.00 53 1010.0
20260505151307 69 225 1.0 6.0 0.00 0.00 0.00 54 1010.0
20260505150807 69 180 1.0 7.0 0.00 0.00 0.00 54 1010.0
20260505150308 69 180 2.0 7.0 0.00 0.00 0.00 55 1010.0
20260505140308 68 180 2.0 6.0 0.00 0.00 0.00 61 1010.0
20260505130307 67 135 1.0 6.0 0.00 0.00 0.00 58 1009.7
20260505124807 67 90 0.0 2.0 0.00 0.00 0.00 60 1009.3
20260505124308 67 203 0.0 2.0 0.00 0.00 0.00 59 1009.3
20260505123807 67 135 0.0 3.0 0.00 0.00 0.00 59 1009.7
20260505123307 67 203 1.0 3.0 0.00 0.00 0.00 59 1009.3
20260505122807 67 158 0.0 3.0 0.00 0.00 0.00 59 1009.3
20260505122306 67 248 0.0 2.0 0.00 0.00 0.00 60 1009.3
20260505121805 66 225 0.0 3.0 0.00 0.00 0.00 60 1009.0
20260505121306 67 68 0.0 3.0 0.00 0.00 0.00 60 1009.3
20260505120806 67 225 0.0 0.0 0.00 0.00 0.00 60 1009.0
20260505120307 67 270 0.0 0.0 0.00 0.00 0.00 60 1009.0
20260505115807 67 315 0.0 0.0 0.00 0.00 0.00 59 1009.3
20260505115307 67 45 0.0 0.0 0.00 0.00 0.00 59 1009.3
20260505114807 67 315 0.0 1.0 0.00 0.00 0.00 58 1009.3
20260505114307 67 315 0.0 3.0 0.00 0.00 0.00 56 1009.0
20260505113805 67 203 0.0 3.0 0.00 0.00 0.00 55 1009.0
20260505113306 67 45 0.0 1.0 0.00 0.00 0.00 55 1009.0
20260505112806 67 90 0.0 3.0 0.00 0.00 0.00 55 1009.3
20260505112306 67 135 0.0 4.0 0.00 0.00 0.00 55 1009.0
20260505111807 68 158 1.0 4.0 0.00 0.00 0.00 55 1009.0
20260505111538 68 180 1.0 5.0 0.00 0.00 0.00 55 1009.0
20260505110807 68 158 1.0 5.0 0.00 0.00 0.00 55 1009.0
20260505110539 68 90 1.0 5.0 0.00 0.00 0.00 55 1009.0
20260505101806 67 180 2.0 9.0 0.00 0.00 0.00 55 1009.7
20260505101307 67 203 2.0 10.0 0.00 0.00 0.00 55 1009.7
20260505100806 67 225 2.0 10.0 0.00 0.00 0.00 55 1009.7
20260505100305 67 180 2.0 9.0 0.00 0.00 0.00 54 1010.0
20260505100036 67 158 2.0 9.0 0.00 0.00 0.00 54 1010.0
20260505095305 67 248 2.0 9.0 0.00 0.00 0.00 54 1010.0
20260505094806 67 158 2.0 9.0 0.00 0.00 0.00 54 1010.0
20260505094306 67 180 1.0 8.0 0.00 0.00 0.00 54 1010.5
20260505093806 67 135 1.0 7.0 0.00 0.00 0.00 54 1010.0
20260505093306 67 90 1.0 7.0 0.00 0.00 0.00 54 1010.0
20260505092807 67 135 2.0 7.0 0.00 0.00 0.00 54 1010.0
20260505092305 67 203 1.0 5.0 0.00 0.00 0.00 55 1010.0
20260505092035 67 180 0.0 4.0 0.00 0.00 0.00 56 1010.0
20260505091305 67 225 0.0 2.0 0.00 0.00 0.00 59 1010.0
20260505090804 67 0 0.0 3.0 0.00 0.00 0.00 58 1010.0
20260505090535 68 180 0.0 5.0 0.00 0.00 0.00 58 1010.0
20260505085805 68 203 1.0 6.0 0.00 0.00 0.00 55 1010.5
20260505085306 68 180 1.0 8.0 0.00 0.00 0.00 55 1010.5
20260505084806 68 158 2.0 12.0 0.00 0.00 0.00 54 1010.5
20260505084306 68 158 2.0 12.0 0.00 0.00 0.00 53 1010.5
20260505083806 68 158 2.0 11.0 0.00 0.00 0.00 53 1010.5
20260505083308 69 158 3.0 15.0 0.00 0.00 0.00 51 1010.5
20260505083304 69 135 2.0 12.0 0.00 0.00 0.00 51 1010.5
20260505082304 69 180 2.0 10.0 0.00 0.00 0.00 50 1010.8
20260505081804 69 203 2.0 10.0 0.00 0.00 0.00 50 1010.8
20260505081304 69 158 2.0 11.0 0.00 0.00 0.00 50 1010.8
20260505080804 70 180 2.0 11.0 0.00 0.00 0.00 49 1010.8
20260505080305 70 158 2.0 12.0 0.00 0.00 0.00 48 1010.8
20260505075804 70 203 3.0 12.0 0.00 0.00 0.00 45 1010.8
20260505075304 70 135 2.0 11.0 0.00 0.00 0.00 45 1010.8
20260505074802 70 180 2.0 12.0 0.00 0.00 0.00 41 1010.8
20260505074302 70 180 2.0 12.0 0.00 0.00 0.00 40 1010.5
20260505073802 71 158 3.0 12.0 0.00 0.00 0.00 40 1010.8
20260505073303 71 203 2.0 10.0 0.00 0.00 0.00 40 1010.5
20260505072803 71 180 2.0 8.0 0.00 0.00 0.00 40 1010.8
20260505072308 71 158 2.0 8.0 0.00 0.00 0.00 40 1010.5
20260505072305 71 225 2.0 8.0 0.00 0.00 0.00 40 1010.5
20260505071304 71 158 2.0 10.0 0.00 0.00 0.00 40 1010.5
20260505070802 71 203 2.0 10.0 0.00 0.00 0.00 40 1010.8
20260505070532 71 135 2.0 8.0 0.00 0.00 0.00 40 1010.8
20260505065801 71 203 2.0 11.0 0.00 0.00 0.00 40 1010.8
20260505065534 71 158 2.0 11.0 0.00 0.00 0.00 39 1010.5
20260505065033 71 248 2.0 12.0 0.00 0.00 0.00 37 1010.8
20260505064303 71 158 3.0 12.0 0.00 0.00 0.00 37 1010.5
20260505063802 71 180 3.0 11.0 0.00 0.00 0.00 35 1010.5
20260505063303 72 203 2.0 11.0 0.00 0.00 0.00 35 1010.0
20260505062803 72 180 2.0 10.0 0.00 0.00 0.00 34 1010.0
20260505062304 72 180 2.0 11.0 0.00 0.00 0.00 34 1010.0
20260505061801 72 180 2.0 11.0 0.00 0.00 0.00 32 1010.0
20260505061301 72 135 2.0 13.0 0.00 0.00 0.00 31 1010.0
20260505060802 72 203 2.0 13.0 0.00 0.00 0.00 30 1010.0
20260505060302 72 180 3.0 11.0 0.00 0.00 0.00 30 1010.0
20260505055802 73 158 3.0 12.0 0.00 0.00 0.00 29 1010.0
20260505055303 73 180 2.0 12.0 0.00 0.00 0.00 27 1010.0
20260505055034 73 158 2.0 10.0 0.00 0.00 0.00 27 1010.0
20260505054302 73 225 2.0 10.0 0.00 0.00 0.00 27 1010.0
20260505053801 73 203 2.0 8.0 0.00 0.00 0.00 29 1010.5
20260505053301 73 135 2.0 7.0 0.00 0.00 0.00 29 1010.5
20260505052800 73 158 1.0 9.0 0.00 0.00 0.00 29 1010.5
20260505052301 73 158 2.0 9.0 0.00 0.00 0.00 30 1010.8
20260505051802 73 180 2.0 9.0 0.00 0.00 0.00 30 1010.8
20260505051302 74 203 2.0 8.0 0.00 0.00 0.00 30 1010.8
20260505050802 74 203 2.0 9.0 0.00 0.00 0.00 29 1010.8
20260505050302 74 180 2.0 9.0 0.00 0.00 0.00 29 1010.5
20260505041519 76 90 1.0 4.0 0.00 0.00 0.00 39 1010.0
20260505041016 76 203 0.0 4.0 0.00 0.00 0.00 39 1010.0
20260505040512 76 113 0.0 4.0 0.00 0.00 0.00 37 1010.0
20260505035740 76 225 1.0 4.0 0.00 0.00 0.00 37 1010.0
20260505035240 76 225 1.0 5.0 0.00 0.00 0.00 37 1010.0
20260505034742 76 248 1.0 5.0 0.00 0.00 0.00 37 1010.0
20260505034513 76 180 1.0 7.0 0.00 0.00 0.00 37 1009.7
20260505033742 76 180 1.0 7.0 0.00 0.00 0.00 37 1009.7
20260505033241 76 248 1.0 6.0 0.00 0.00 0.00 37 1009.7